Location: Cerbedières
(48.2182°N, 1.4849°W)
Time: 11:28:35
(UTC+00:00)

Daily predictions for brighter satellites

Satellite Brightness Start Highest point End
(mag) Time Altitude Azimuth Time Altitude Azimuth Time Altitude Azimuth
ATLAS 2AS CENTAUR R/B 4.3 18:42:25 10° W 18:48:57 35° NNW 18:55:17 10° NE
Landsat 7 4.1 18:45:05 10° S 18:49:45 73° WSW 18:54:29 10° NNW
Cosmos 1842 4.0 18:48:45 10° N 18:51:58 29° ENE 18:55:10 10° SE
USA 59 Rocket 0.0 18:49:25 10° NW 18:53:09 72° NE 18:58:18 10° SE
Cosmos 1536 4.2 18:51:25 10° SE 18:54:02 18° E 18:56:40 10° NE
Cosmos 2061 Rocket 4.1 18:48:39 10° S 18:55:05 85° E 19:01:33 10° N
COSMOS 2428 2.8 18:49:37 10° S 18:55:10 55° ESE 19:00:45 10° NE
Cosmos 1707 3.6 18:52:43 10° NNE 18:55:46 26° ENE 18:58:48 10° SE
Cosmos 1818 3.7 18:54:42 10° SW 19:00:10 85° NW 19:05:42 10° NE
Okean O Rocket 3.1 18:58:14 10° ESE 19:01:27 20° ENE 19:04:39 10° NNE
Cosmos 1626 4.3 19:01:04 10° NW 19:03:34 24° W 19:06:04 10° SSW
Meteor 2-4 Rocket 4.4 19:00:19 10° NNW 19:06:12 63° W 19:11:57 10° S
Cosmos 2278 Rocket 2.4 19:00:41 10° NNW 19:06:15 56° ENE 19:11:49 10° SE
USA 306 2.2 19:03:53 10° WSW 19:06:53 88° NNW 19:10:29 10° ENE
DMSP B5D1-3 4.4 19:03:13 10° NNE 19:08:19 76° ESE 19:13:23 10° S
Tsikada Rocket 4.4 19:02:37 10° NNW 19:08:53 70° W 19:15:11 10° S
CZ-4B DEB 4.2 19:03:39 10° SSE 19:09:07 68° ENE 19:14:36 10° N
CZ-4 R/B 1.5 19:06:24 10° SSE 19:10:06 51° ENE 19:13:54 10° N
NOSS 2-1 (C) 3.6 19:09:45 10° NW 19:13:30 78° SW 19:18:40 10° SE
CZ-4B R/B 3.6 19:08:33 10° SE 19:13:41 44° ENE 19:18:45 10° N
Cosmos 1766 Rocket 3.5 19:09:38 10° S 19:13:56 64° E 19:18:18 10° NNE
TSX-5 4.2 19:12:30 10° NW 19:15:31 46° WSW 19:18:40 10° S
Resurs 01 Rocket 2.0 19:11:31 10° SE 19:15:41 43° ENE 19:19:54 10° N
USA 290 2.2 19:13:33 10° NNW 19:16:50 65° ENE 19:20:06 10° SSE
Helios 1A 2.9 19:12:58 10° NNE 19:16:59 56° ESE 19:20:58 10° S
YAOGAN 1 4.0 19:14:04 10° SSW 19:18:06 40° W 19:22:10 10° NNW
ADEOS 3.6 19:13:04 10° SSE 19:18:17 85° WSW 19:23:33 10° NNW
GEOS 3 Rocket 3.6 19:14:00 10° SE 19:19:13 78° NE 19:24:25 10° NW
USA 186 2.2 19:17:53 10° SE 19:20:56 42° ENE 19:24:02 10° N
CZ-4B R/B 3.5 19:16:24 10° SSE 19:21:08 79° WSW 19:25:58 10° NNW
Cosmos 1814 Rocket 4.0 19:16:15 10° SSW 19:21:31 76° ESE 19:26:46 10° NNE
Cosmos 2360 Rocket 4.2 19:16:42 10° WSW 19:21:39 30° NW 19:26:37 10° NNE
PAYLOAD B 4.3 19:16:42 10° SSE 19:22:15 68° ENE 19:27:50 10° N
Cosmos 1743 3.6 19:19:01 10° SSW 19:22:29 49° WNW 19:25:58 10° N
KORONAS-FOTON 3.6 19:19:14 10° N 19:22:57 73° E 19:26:37 10° SSE
SPOT 5 4.2 19:22:15 14° E 19:24:27 19° ENE 19:27:36 10° NNE
Okean-O 4.1 19:23:05 15° E 19:25:13 20° ENE 19:28:26 10° NNE
SKYMED 3 4.4 19:23:46 10° NNE 19:27:55 87° ESE 19:32:01 10° SSW
Cosmos 1408 Rocket 4.4 19:24:23 10° SSE 19:28:09 29° E 19:31:56 10° NNE
USA 267 4.2 19:22:24 10° ENE 19:28:26 42° N 19:34:30 10° WNW
ISS -3.2 19:25:34 10° SW 19:28:42 39° SSE 19:30:43 19° E
SPOT 1/Viking Rocket 3.8 19:24:16 10° S 19:29:26 73° WSW 19:34:37 10° NNW
CZ-4B R/B 2.7 19:26:18 10° SSE 19:30:09 83° ENE 19:34:15 10° NNW
Kosmos-1783 3.8 19:29:21 10° WSW 19:31:28 33° NW 19:33:04 10° NNE
SL-08 R/B 3.6 19:28:39 10° NNE 19:33:36 79° WNW 19:38:30 10° SSW
Cosmos 2237 Rocket 2.4 19:28:53 10° S 19:34:12 45° ESE 19:39:33 10° NE
Aureole 3 Rocket 4.5 19:31:12 10° SSE 19:37:05 32° E 19:41:32 10° NNE
CSL-04 Rocket 3.7 19:32:10 10° SSE 19:37:25 61° ENE 19:42:39 10° N
Cosmos 2219 Rocket 3.8 19:33:39 10° WSW 19:38:56 39° NW 19:44:14 10° NNE
Cosmos 1674 3.7 19:37:31 10° NNW 19:40:41 40° W 19:43:47 10° SSW
Cosmos 1328 Rocket 4.2 19:37:01 10° NNW 19:41:14 56° W 19:45:25 10° S
Cosmos 1356 Rocket 3.4 19:38:44 10° NNW 19:42:57 89° W 19:47:07 10° S
Meteor 1-14 Rocket 4.2 19:37:31 10° S 19:43:03 89° E 19:48:39 10° NNE
Aureole 1 4.2 19:40:51 10° NNW 19:43:58 86° ENE 19:46:29 18° SSE
Lacrosse 4 Rocket 3.8 19:41:09 10° WNW 19:44:31 22° WSW 19:47:51 10° SSW
SJ-6B 3.9 19:42:25 10° S 19:45:52 40° W 19:49:17 10° NNW
Meteor 1-4 Rocket 3.2 19:43:25 10° NNW 19:45:57 38° W 19:48:27 10° SSW
Meteor 1-11 Rocket 3.8 19:40:42 10° S 19:46:07 52° E 19:51:29 10° NNE
CARTOSAT-1 3.5 19:46:24 10° SSE 19:50:39 87° WSW 19:54:56 10° NNW
ATLAS CENTAUR R/B 1.3 19:47:44 10° SSW 19:51:06 42° ESE 19:54:38 10° NE
Cosmos 158 Rocket 4.0 19:46:34 10° S 19:51:12 46° ESE 19:55:51 10° NNE
Cosmos 1805 Rocket 4.1 19:52:47 27° SE 19:54:13 34° E 19:58:09 10° NNE
Cosmos 1733 2.7 19:55:01 10° S 19:58:27 82° E 20:01:54 10° N
USA 276 2.4 19:57:40 10° W 20:00:23 43° SSW 20:00:38 41° S
In-Cosmos 22 4.2 19:55:06 10° N 20:00:51 87° ENE 20:06:00 12° SSE
Cosmos 2369 Rocket 3.5 19:58:14 10° N 20:03:01 26° NE 20:05:12 21° ENE
Cosmos 1980 3.6 19:58:00 10° SSW 20:03:40 80° ESE 20:09:23 10° NNE
SWARM A 4.2 20:03:48 22° S 20:05:58 82° E 20:09:29 10° N
Sich 1 3.1 20:07:33 30° SSE 20:09:20 51° E 20:13:32 10° NNE
BlueWalker 3 4.2 20:07:43 10° W 20:10:16 17° SW 20:12:13 12° S
Cosmos 1943 Rocket 2.2 20:04:54 10° NNW 20:10:25 76° WSW 20:14:05 22° SSE
NOSS 0 Rocket 4.2 20:06:00 10° SW 20:12:13 73° WNW 20:18:30 10° NNE
CSL-04 Debris 4.5 20:07:53 10° S 20:13:20 68° WSW 20:18:49 10° NNW
Cosmos 2298 Rocket 4.0 20:09:01 10° NNW 20:14:18 64° ENE 20:16:27 35° SE
Terra 2.8 20:13:52 28° ENE 20:14:23 29° ENE 20:18:25 10° N
ACS3 Solar Sail 1.8 20:09:36 16° SSE 20:14:53 83° ENE 20:21:20 10° N
ERS-1 Rocket 3.7 20:14:03 32° E 20:15:06 36° ENE 20:19:40 10° N
Nadezhda 4 Rocket 4.0 20:09:14 10° N 20:15:31 83° W 20:21:40 11° S
Cosmos 2195 Rocket 4.4 20:09:33 10° N 20:15:39 67° ENE 20:19:12 26° SSE
Cosmos 2150 Rocket 3.9 20:10:51 10° NNW 20:16:00 66° ENE 20:17:56 37° SE
Cosmos 1570 Rocket 3.9 20:11:07 10° SSW 20:16:25 86° ESE 20:21:42 10° NNE
USA 32 4.0 20:11:40 10° N 20:16:54 66° E 20:19:24 31° SSE
Cosmos 1975 4.0 20:18:58 26° NE 20:18:58 26° NE 20:21:12 10° NNE
Cosmos 1805 2.9 20:21:37 66° E 20:21:37 66° E 20:25:15 10° NNE
Cosmos 1315 Rocket 2.9 20:19:00 10° NNW 20:22:59 74° W 20:24:27 37° S
Cosmos 2026 Rocket 4.0 20:16:47 10° N 20:23:00 64° ENE 20:25:51 33° SSE
Cosmos 1092 Rocket 4.0 20:17:11 10° N 20:23:30 63° ENE 20:26:28 32° SSE
Ariane Rocket 4.0 20:24:21 27° ENE 20:24:45 27° ENE 20:29:00 10° N
Cosmos 836 Rocket 4.4 20:21:41 10° SSW 20:26:56 71° ESE 20:32:14 10° NNE
IRS-1A Rocket 4.5 20:26:27 39° ESE 20:28:18 54° ENE 20:33:50 10° N
Cosmos 1536 4.2 20:26:04 10° SW 20:29:37 37° WNW 20:33:13 10° N
Cosmos 1125 Rocket 4.2 20:27:25 10° NNW 20:32:26 50° WSW 20:35:39 21° S
SL-16 R/B 2.6 20:35:16 41° E 20:35:16 41° E 20:39:57 10° NE
Okean O Rocket 2.2 20:35:02 26° SSW 20:37:20 53° W 20:41:41 10° NNW
Cosmos 1634 Rocket 4.0 20:36:32 37° SSE 20:38:57 59° E 20:45:10 10° NNE
USA 306 3.8 20:36:40 10° WNW 20:39:49 34° N 20:40:35 31° NNE
Cosmos 1656 Rocket 3.8 20:34:40 10° NNW 20:40:15 55° ENE 20:41:19 48° E
SL-14 R/B 3.1 20:36:50 10° N 20:40:36 83° W 20:40:36 83° W
USA 59 Rocket 2.6 20:39:40 10° W 20:42:34 17° WSW 20:46:04 10° SSW
PSLV R/B 4.1 20:44:13 53° WSW 20:44:22 54° W 20:47:50 10° NNW
CZ-4 R/B 4.1 20:42:43 10° SW 20:44:57 15° W 20:47:13 10° NW
IRS-1C Rocket 4.1 20:45:02 56° ESE 20:45:52 66° ENE 20:51:06 10° N
Cosmos 773 Rocket 3.9 20:45:40 49° S 20:46:58 68° ESE 20:52:14 10° NNE
Cosmos 2278 Rocket 4.0 20:45:20 10° NW 20:50:00 27° WSW 20:54:32 10° SSW
Cosmos 1500 Rocket 4.2 20:47:41 19° SSW 20:50:40 55° WNW 20:54:57 10° N
Resurs 01 Rocket 3.8 20:48:48 10° SW 20:52:17 22° W 20:55:48 10° NW
STPSAT 2 (USA 217) 4.5 20:49:21 10° NNW 20:53:52 81° NE 20:53:52 81° NE
Cosmos 2228 Rocket 3.2 20:51:10 10° N 20:55:20 65° NE 20:55:20 65° NE
Cosmos 2034 Rocket 4.5 20:50:32 10° SSW 20:56:39 59° WNW 21:02:45 10° N
Cosmos 1743 Rocket 3.9 20:56:20 46° SW 20:57:22 62° WNW 21:01:42 10° N
MetOp-B 4.2 20:56:16 48° S 20:57:45 74° WSW 21:03:08 10° NNW
CRYOSAT 2 4.4 20:55:16 10° N 21:00:10 76° W 21:01:11 55° SSW
SPOT 3 Rocket 3.8 21:00:55 50° ENE 21:00:55 50° ENE 21:05:38 10° N
Okean-O 3.2 21:00:31 46° SW 21:01:14 52° W 21:05:33 10° NNW
SPOT 5 3.1 21:01:23 50° SW 21:02:07 57° W 21:06:32 10° NNW
NOSS 3-3 (C) 3.8 20:59:55 10° SW 21:05:22 78° NW 21:11:52 10° NE
ISS -1.6 21:02:07 10° W 21:03:42 25° W 21:03:42 25° W
USA 267 3.7 21:08:22 36° ENE 21:10:46 53° NNE 21:17:05 10° NW
Cosmos 2237 Rocket 3.7 21:13:16 10° WSW 21:18:23 35° NW 21:23:33 10° NNE
NOSS 3-3 (A) 4.2 21:14:12 10° SW 21:19:38 63° NW 21:26:06 10° NE
Cosmos 2279 Rocket 3.8 21:19:59 75° SE 21:20:28 80° E 21:26:42 10° N
Cosmos 1607 3.9 21:17:14 10° SW 21:23:43 90° SSE 21:30:13 10° NE
MOS 1 Rocket 4.2 21:24:48 46° WSW 21:25:30 49° W 21:30:38 10° NNW
ATLAS CENTAUR R/B 3.3 21:25:35 10° W 21:28:38 25° NW 21:29:51 21° N
Cosmos 2297 3.7 21:23:27 10° NNW 21:28:59 76° W 21:28:59 76° W
Spot 2 Rocket 3.7 21:31:06 67° NW 21:31:06 67° NW 21:35:37 10° NNW
NOSS 3-4 (A) 3.7 21:37:10 10° NW 21:44:00 77° SW 21:44:37 72° S
NOSS 3-4 (C) 3.7 21:37:17 10° NW 21:44:07 77° SW 21:44:43 73° S
Cosmos 2369 Rocket 2.5 21:41:52 10° NNW 21:46:58 63° WNW 21:46:58 63° WNW
Terra 3.1 21:52:34 36° WNW 21:52:34 36° WNW 21:56:14 10° NNW
ERS-1 Rocket 4.2 21:53:59 34° W 21:53:59 34° W 21:58:25 10° NNW
ACS3 Solar Sail 4.0 21:55:14 10° SW 21:59:40 19° W 22:04:08 10° NW
Ariane Rocket 4.1 22:04:30 40° WNW 22:04:30 40° WNW 22:08:20 10° NNW
Cosmos 2266 Rocket 4.2 22:04:06 10° NNW 22:09:40 67° NW 22:09:40 67° NW
SL-16 R/B 3.5 22:17:01 30° W 22:18:48 38° NW 22:24:04 10° NNE
ATLAS 2AS CENTAUR R/B 4.0 22:29:03 10° NW 22:35:07 31° NNE 22:36:30 29° NE
USA 267 3.9 22:55:43 46° WNW 22:55:43 46° WNW 23:00:11 10° WNW
Cosmos 2344 3.9 23:19:09 10° NW 23:27:14 81° NE 23:27:14 81° NE
Cosmos 1980 Rocket 4.0 23:49:01 10° NNW 23:52:13 26° NNE 23:52:13 26° NNE
